User: anonymous   Login
Location: Unspecified
(0.0000°N, 0.0000°E)
Time: 20:30:15
(UTC+00:00)
Language:

N. Korean satellite - Orbit

View from above orbital plane
View from above orbital plane
View from above satellite
View from above satellite

Ground track
Ground track

The orbit data is extracted from the following two-line orbital elements,

1 39026U 12072A   16043.55291068  .00007557  00000-0  31851-3 0  9997
2 39026  97.2604  71.9711 0045350 109.8813 250.7319 15.22644712175254
Epoch (UTC): 12 February 2016 13:16:11
Eccentricity: 0.0045350
inclination: 97.2604°
perigee height: 466 km
apogee height: 529 km
right ascension of ascending node: 71.9711°
argument of perigee: 109.8813°
revolutions per day: 15.22644712
mean anomaly at epoch: 250.7319°
orbit number at epoch: 17525

The dashed part of the orbit path shows where the satellite is in the earth's shadow,  

DLR